Zurück zum Katalog

STARLINK-37857

AktivKommunikationSSO
NORAD 69429·PAYLOAD·🇺🇸 United States

Gestartet Jun 7, 2026 von Vandenberg Space Force Base

Loading…

Nächste Überflüge (nächste 24 Stunden)

TLE

AktuellSource: CelesTrak SupGP

Epoche: Sep 15, 2026, 03:39 UTC

1 69429C 26126K   26258.15256944 -.00017394  00000+0 -53980-3 0  2587
2 69429  97.2847 119.4811 0002404  96.8755 351.0862 15.33454075    17

Verfolge STARLINK-37857 in Echtzeit mit AllMySat

Download on the App Store